[[{"header":{"parameterUnit":"m.s-1","parameterCategory":1,"la1":30.2991,"la2":30.254,"lo1":-89.0895,"lo2":-89.0444,"dy":0.0017,"dx":0.0017,"nx":28,"ny":28,"refTime":"2024-10-03T09:00:00:Z","depth":0,"parameterNumber":2,"parameterNumberName":"U-component_of_WINDS"},"data":[0,0,0,0,0,0,0,0,0,0,0,0,0,0,0,0,0,0,0,0,0,0,0,0,0,0,0,0,0,0,0,0,0,0,0,0,0,0,0,0,0,0,0,0,0,0,0,0,0,0,0,0,0,0,0,0,0,0,-1.9703,-1.9703,0,-1.9717,-1.9717,-1.9717,-1.9629,-1.9626,-1.9624,-1.9622,-1.9636,-1.9639,-1.9642,0,0,0,0,0,0,0,0,0,0,0,0,0,-1.9601,-1.9603,-1.9703,-1.9703,-1.9703,-1.9717,-1.9717,-1.9717,-1.9629,-1.9626,-1.9623,-1.9621,-1.9636,-1.9639,-1.9642,0,0,0,0,0,0,0,0,0,0,0,0,0,-1.9633,-1.9604,-1.9703,-1.9661,-1.9658,-1.9717,-1.9717,-1.9717,-1.963,-1.9626,-1.9623,-1.9619,-1.9634,-1.9638,-1.9642,-1.9742,0,0,-1.9655,-1.9657,0,0,0,0,0,0,0,0,-1.9631,-1.9637,-1.9667,-1.9664,-1.966,-1.9667,-1.9686,-1.9726,-1.9631,-1.9641,-1.9622,-1.9617,-1.965,-1.9652,-1.9663,-1.9743,-1.9744,-1.9655,-1.9658,-1.9659,-1.9661,0,0,0,0,0,0,0,-1.9629,-1.9636,-1.9708,-1.9668,-1.9664,-1.9642,-1.9642,-1.9693,-1.9666,-1.9639,-1.9633,-1.9636,-1.9647,-1.9659,-1.9663,-1.9744,-1.9655,-1.9659,-1.9661,-1.9663,-1.9906,-1.991,0,0,0,0,0,0,-1.9633,-1.9635,-1.9708,-1.9709,-1.9636,-1.9647,-1.9647,-1.9669,-1.9665,-1.9661,-1.9639,-1.9632,-1.9654,-1.9658,-1.9663,-1.978,-1.9659,-1.9663,-1.9666,-1.9902,-1.9907,-1.9911,0,0,0,0,0,0,-1.9631,-1.964,-1.9707,-1.967,-1.9677,-1.9652,-1.9677,-1.9671,-1.9683,-1.9665,-1.966,-1.9657,-1.9651,-1.9657,-1.9723,-1.9779,-1.9665,-1.9669,-1.9897,-1.9903,-1.9909,-2.0014,0,0,0,0,0,0,-1.9628,-1.964,-1.9678,-1.9672,-1.9679,-1.9768,-1.9681,-1.9674,-1.969,-1.9681,-1.968,-1.9676,-1.9649,-1.9717,-1.9727,-1.9783,-1.9672,-1.9892,-1.99,-1.9907,-2.0006,-2.0023,-2.0038,0,0,0,0,0,-1.9625,-1.9707,-1.968,-1.969,-1.9726,-1.9771,-1.9776,-1.9742,-1.9695,-1.9733,-1.9721,-1.9676,-1.9771,-1.9725,-1.9735,-1.9793,-1.9888,-1.9898,-1.9906,-1.9998,-2.002,-2.0038,0,0,0,0,0,0,-1.9722,-1.9706,-1.9676,-1.9758,-1.9767,-1.9756,-1.9803,-1.9766,-1.9788,-1.9779,-1.9736,-1.9737,-1.981,-1.9807,-1.9756,-1.9889,-1.9821,-1.9833,-1.9888,-1.9908,-1.9924,-1.9923,-1.9675,0,0,0,0,0,-1.9752,-1.979,-1.9774,-1.9849,-1.9854,-1.9828,-1.9847,-1.982,-1.9827,-1.983,-1.9823,-1.9832,-1.9863,-1.9885,-1.9913,-2.0004,-2.0003,-2.0049,-2.0065,-2.0078,-2.0089,-2.0137,-2.0157,-1.9941,-1.994,-1.994,0,0,-1.9817,-1.9813,-1.9839,-1.9868,-1.9871,-1.9912,-1.9832,-1.9878,-1.9907,-1.9837,-1.9899,-1.9894,-1.9901,-1.998,-2.0014,-1.998,-2.0148,-2.009,-2.01,-2.0104,-2.0148,-2.0168,-2.0187,-1.9947,-1.9946,-1.9945,0,0,-1.9955,-1.9955,-2.0017,-2.0022,-2.0028,-2.001,-2.0025,-2.0019,-2.0013,-2.0074,-2.0023,-2.0057,-2.0112,-2.0119,-2.013,-2.0269,-2.0229,-2.0279,-2.0364,-2.0411,-2.0428,-2.0443,-2.0493,-2.0511,-2.029,-2.029,-2.029,0,-2.0034,-2.0092,-2.0054,-2.0103,-2.0117,-2.0055,-2.0118,-2.0124,-2.0139,-2.015,-2.0111,-2.0179,-2.0179,-2.0259,-2.0293,-2.0303,-2.0319,-2.028,-2.0429,-2.0443,-2.0457,-2.0504,-2.0523,-2.0296,-2.0295,-2.0295,-2.0294,0,-2.019,-2.0231,-2.028,-2.0296,-2.0315,-2.0371,-2.0341,-2.0365,-2.0337,-2.0323,-2.0385,-2.0383,-2.0409,-2.0426,-2.0399,-2.0502,-2.048,-2.0436,-2.0368,-2.0484,-2.0528,-2.0546,-2.0305,-2.0303,-2.0301,-2.0299,0,0,-2.0391,-2.0383,-2.0402,-2.0408,-2.0409,-2.044,-2.0493,-2.0518,-2.054,-2.0552,-2.0595,-2.0642,-2.0601,-2.0613,-2.0586,-2.0627,-2.0738,-2.0577,-2.0577,-2.0608,-2.0851,-2.0885,-2.0907,-2.071,-2.0714,-2.0716,-2.0851,0,-2.0526,-2.0615,-2.0582,-2.0673,-2.0711,-2.0651,-2.0697,-2.0703,-2.0691,-2.072,-2.0706,-2.0741,-2.0684,-2.0691,-2.0729,-2.0716,-2.0786,-2.0706,-2.075,-2.0753,-2.0752,-2.0929,-2.0966,-2.1093,-2.0867,-2.087,-2.0872,0,-2.0696,-2.0714,-2.081,-2.0804,-2.0818,-2.086,-2.088,-2.0909,-2.0914,-2.0902,-2.0915,-2.0879,-2.0929,-2.0861,-2.093,-2.0876,-2.0892,-2.0889,-2.0893,-2.0896,-2.082,-2.0939,-2.1132,-2.1152,-2.0899,-2.0897,-2.0895,0,-2.0833,-2.0882,-2.0945,-2.0952,-2.0946,-2.0977,-2.0976,-2.0977,-2.0994,-2.1012,-2.1022,-2.1045,-2.1059,-2.1077,-2.1048,-2.1,-2.1122,-2.105,-2.1114,-2.1115,-2.1143,-2.1142,-2.1343,-2.1152,-2.1152,-2.1152,-2.1151,0,-2.0988,-2.105,-2.1007,-2.1046,-2.1112,-2.1072,-2.1139,-2.1132,-2.1133,-2.1169,-2.1119,-2.1154,-2.1113,-2.1144,-2.1121,-2.1183,-2.1189,-2.1181,-2.1174,-2.1186,-2.1187,-2.1196,-2.1187,-2.1157,-2.1155,-2.1154,-2.1154,0,-2.1154,-2.1128,-2.1193,-2.1182,-2.118,-2.123,-2.122,-2.1256,-2.1239,-2.1286,-2.1295,-2.1269,-2.1303,-2.1275,-2.1309,-2.1293,-2.1375,-2.1355,-2.1373,-2.1368,-2.1433,-2.1428,-2.1648,-2.1675,-2.1467,-2.1469,-2.147,0,-2.1255,-2.1301,-2.1294,-2.1315,-2.1317,-2.1351,-2.1367,-2.133,-2.1349,-2.1358,-2.1392,-2.1422,-2.1444,-2.1501,-2.1486,-2.1511,-2.1492,-2.1567,-2.1496,-2.1506,-2.1494,-2.1492,-2.1496,-2.1583,-2.1585,-2.1587,-2.1589,0,-2.1438,-2.1422,-2.1448,-2.147,-2.1491,-2.1507,-2.1518,-2.1538,-2.1499,-2.1524,-2.1558,-2.1575,-2.1608,-2.1639,-2.1658,-2.1657,-2.1617,-2.1611,-2.1627,-2.164,-2.1649,-2.1646,-2.1414,-2.1607,-2.1605,-2.1604,-2.1603,-2.1602,-2.1575,-2.1612,-2.1613,-2.1643,-2.1648,-2.1659,-2.1692,-2.1679,-2.1707,-2.1731,-2.1707,-2.1748,-2.1751,-2.1773,-2.1777,-2.1808,-2.1777,-2.18,-2.1806,-2.1813,-2.1822,-2.1643,-2.1812,-2.1811,-2.1811,-2.181,-2.181,0,-2.1755,-2.1752,-2.178,-2.1798,-2.1822,-2.178,-2.1791,-2.1814,-2.185,-2.1856,-2.1878,-2.1917,-2.1946,-2.1932,-2.1957,-2.1985,-2.1968,-2.1993,-2.1991,-2.1992,-2.1849,-2.1833,-2.2007,-2.2007,-2.2007,-2.2007,-2.2007,-2.2007,-2.1851,-2.1912,-2.1897,-2.1959,-2.1956,-2.1996,-2.2005,-2.2015,-2.2019,-2.2065,-2.2089,-2.2079,-2.2077,-2.2101,-2.2126,-2.2121,-2.2133,-2.2165,-2.2154,-2.2021,-2.2002,-2.1983,-2.1968,-2.2168,-2.2168,-2.2294,-2.2295,-2.2296]},{"header":{"parameterUnit":"m.s-1","parameterCategory":1,"la1":30.2991,"la2":30.254,"lo1":-89.0895,"lo2":-89.0444,"dy":0.0017,"dx":0.0017,"nx":28,"ny":28,"refTime":"2024-10-03T09:00:00:Z","depth":0,"parameterNumber":3,"parameterNumberName":"V-component_of_WINDS"},"data":[0,0,0,0,0,0,0,0,0,0,0,0,0,0,0,0,0,0,0,0,0,0,0,0,0,0,0,0,0,0,0,0,0,0,0,0,0,0,0,0,0,0,0,0,0,0,0,0,0,0,0,0,0,0,0,0,0,0,-3.2549,-3.2549,0,-3.2553,-3.2553,-3.2553,-3.2496,-3.2494,-3.2493,-3.2491,-3.2495,-3.2496,-3.2498,0,0,0,0,0,0,0,0,0,0,0,0,0,-3.249,-3.2491,-3.2549,-3.2549,-3.2549,-3.2553,-3.2553,-3.2553,-3.2496,-3.2494,-3.2492,-3.249,-3.2494,-3.2496,-3.2498,0,0,0,0,0,0,0,0,0,0,0,0,0,-3.2507,-3.2492,-3.2549,-3.2521,-3.2518,-3.2553,-3.2553,-3.2553,-3.2496,-3.2494,-3.2492,-3.249,-3.2494,-3.2496,-3.2498,-3.2559,0,0,-3.2505,-3.2506,0,0,0,0,0,0,0,0,-3.2506,-3.2509,-3.2525,-3.2523,-3.252,-3.2521,-3.2533,-3.2555,-3.2497,-3.2505,-3.2491,-3.2488,-3.2506,-3.2507,-3.2513,-3.256,-3.256,-3.2506,-3.2507,-3.2508,-3.2509,0,0,0,0,0,0,0,-3.2505,-3.2509,-3.255,-3.2525,-3.2522,-3.2508,-3.2508,-3.2537,-3.2518,-3.2504,-3.25,-3.2501,-3.2504,-3.2511,-3.2512,-3.256,-3.2505,-3.2508,-3.2509,-3.251,-3.2656,-3.2658,0,0,0,0,0,0,-3.2508,-3.2508,-3.255,-3.255,-3.2507,-3.2511,-3.251,-3.2523,-3.2518,-3.2515,-3.2503,-3.2498,-3.2508,-3.251,-3.2512,-3.2583,-3.2508,-3.251,-3.2511,-3.2653,-3.2656,-3.2659,0,0,0,0,0,0,-3.2507,-3.2512,-3.255,-3.2528,-3.2532,-3.2514,-3.2529,-3.2525,-3.2531,-3.2517,-3.2513,-3.2514,-3.2506,-3.2509,-3.2548,-3.2582,-3.2511,-3.2513,-3.265,-3.2654,-3.2658,-3.2725,0,0,0,0,0,0,-3.2505,-3.2512,-3.2535,-3.2529,-3.2533,-3.2586,-3.2531,-3.2527,-3.2536,-3.253,-3.2526,-3.2523,-3.2504,-3.2545,-3.255,-3.2584,-3.2515,-3.2647,-3.2652,-3.2656,-3.2719,-3.273,-3.2739,0,0,0,0,0,-3.2503,-3.2554,-3.2537,-3.2542,-3.2562,-3.2588,-3.2591,-3.2568,-3.2539,-3.2562,-3.2552,-3.2523,-3.2577,-3.2549,-3.2555,-3.259,-3.2645,-3.2651,-3.2656,-3.2715,-3.2728,-3.2739,0,0,0,0,0,0,-3.2565,-3.2553,-3.2534,-3.2584,-3.2588,-3.2579,-3.2607,-3.2583,-3.2595,-3.2589,-3.256,-3.256,-3.2603,-3.26,-3.2569,-3.2648,-3.2606,-3.2613,-3.2648,-3.2661,-3.2671,-3.2671,-3.2517,0,0,0,0,0,-3.2585,-3.2607,-3.2595,-3.2641,-3.2644,-3.2625,-3.2636,-3.2618,-3.2621,-3.2622,-3.2615,-3.2619,-3.2636,-3.2648,-3.2664,-3.2718,-3.2716,-3.2745,-3.2755,-3.2764,-3.277,-3.2798,-3.281,-3.2677,-3.2677,-3.2677,0,0,-3.2625,-3.2621,-3.2637,-3.2653,-3.2654,-3.2677,-3.2627,-3.2654,-3.2671,-3.2626,-3.2662,-3.2657,-3.2659,-3.2706,-3.2726,-3.2705,-3.2806,-3.2771,-3.2778,-3.2779,-3.2805,-3.2817,-3.2829,-3.2681,-3.268,-3.268,0,0,-3.2711,-3.2711,-3.2748,-3.275,-3.2751,-3.2739,-3.2748,-3.2742,-3.2737,-3.2773,-3.274,-3.2759,-3.279,-3.2792,-3.2798,-3.2884,-3.2857,-3.2889,-3.2942,-3.2969,-3.298,-3.2989,-3.3019,-3.303,-3.2896,-3.2896,-3.2896,0,-3.2761,-3.2796,-3.2771,-3.28,-3.2807,-3.2767,-3.2805,-3.2807,-3.2814,-3.282,-3.2796,-3.2833,-3.2832,-3.2878,-3.2899,-3.2905,-3.2914,-3.289,-3.298,-3.2989,-3.2998,-3.3026,-3.3037,-3.29,-3.2899,-3.2899,-3.2899,0,-3.2857,-3.2881,-3.2911,-3.2918,-3.2929,-3.2962,-3.2942,-3.2956,-3.2937,-3.2927,-3.2963,-3.296,-3.2973,-3.2983,-3.2965,-3.3027,-3.3013,-3.2986,-3.2942,-3.3015,-3.304,-3.3051,-3.2905,-3.2904,-3.2903,-3.2902,0,0,-3.2982,-3.2974,-3.2986,-3.2988,-3.2987,-3.3005,-3.3036,-3.3049,-3.3061,-3.3067,-3.3092,-3.3119,-3.3092,-3.3098,-3.308,-3.3104,-3.3172,-3.3073,-3.3073,-3.3091,-3.3238,-3.3259,-3.3272,-3.3154,-3.3156,-3.3157,-3.3238,0,-3.3065,-3.3118,-3.3096,-3.315,-3.3172,-3.3134,-3.316,-3.3162,-3.3153,-3.317,-3.3159,-3.3179,-3.3143,-3.3146,-3.3169,-3.3159,-3.3201,-3.3153,-3.3176,-3.3177,-3.3177,-3.3286,-3.3308,-3.3385,-3.3248,-3.325,-3.3251,0,-3.3169,-3.3179,-3.3236,-3.3229,-3.3237,-3.3262,-3.3272,-3.3288,-3.3289,-3.3281,-3.3287,-3.3263,-3.3292,-3.325,-3.329,-3.3257,-3.3266,-3.3262,-3.3265,-3.3266,-3.3219,-3.329,-3.3408,-3.342,-3.3267,-3.3266,-3.3265,0,-3.3254,-3.3281,-3.3318,-3.3322,-3.3315,-3.3333,-3.3331,-3.333,-3.3339,-3.3348,-3.3353,-3.3365,-3.3372,-3.3381,-3.3361,-3.3332,-3.3403,-3.3359,-3.3397,-3.3397,-3.3413,-3.3413,-3.3535,-3.342,-3.3419,-3.3419,-3.3419,0,-3.3349,-3.3385,-3.3356,-3.3379,-3.3418,-3.3392,-3.3431,-3.3425,-3.3424,-3.3444,-3.3412,-3.3432,-3.3404,-3.3422,-3.3406,-3.3441,-3.3444,-3.3438,-3.3433,-3.3441,-3.3441,-3.3445,-3.3439,-3.3422,-3.3422,-3.3421,-3.342,0,-3.3451,-3.3433,-3.3471,-3.3461,-3.346,-3.3489,-3.348,-3.3501,-3.3489,-3.3516,-3.352,-3.3502,-3.3521,-3.3502,-3.3519,-3.3508,-3.3555,-3.3543,-3.3555,-3.3551,-3.359,-3.3586,-3.3718,-3.3734,-3.3609,-3.3611,-3.3612,0,-3.3512,-3.3539,-3.3532,-3.3543,-3.3543,-3.3562,-3.3571,-3.3546,-3.3557,-3.3559,-3.3579,-3.3595,-3.3606,-3.3637,-3.3625,-3.3638,-3.3626,-3.3671,-3.3628,-3.3634,-3.3626,-3.3624,-3.3627,-3.368,-3.3682,-3.3683,-3.3684,0,-3.3623,-3.3613,-3.3627,-3.3638,-3.3649,-3.3657,-3.3662,-3.3673,-3.3647,-3.366,-3.3679,-3.3687,-3.3704,-3.372,-3.3729,-3.3727,-3.3701,-3.3698,-3.3707,-3.3715,-3.372,-3.3717,-3.3579,-3.3695,-3.3694,-3.3693,-3.3692,-3.3692,-3.3706,-3.3727,-3.3726,-3.3742,-3.3743,-3.3748,-3.3767,-3.3757,-3.3772,-3.3784,-3.3768,-3.3791,-3.379,-3.38,-3.38,-3.3817,-3.3798,-3.3812,-3.3815,-3.3819,-3.3824,-3.3718,-3.3819,-3.3819,-3.3818,-3.3818,-3.3818,0,-3.3814,-3.3811,-3.3827,-3.3834,-3.3847,-3.3821,-3.3825,-3.3838,-3.3858,-3.3859,-3.3871,-3.3891,-3.3906,-3.3896,-3.3908,-3.3924,-3.3912,-3.3928,-3.3926,-3.3926,-3.3841,-3.3831,-3.3937,-3.3937,-3.3937,-3.3937,-3.3937,-3.3937,-3.3872,-3.3907,-3.3897,-3.3931,-3.3927,-3.3949,-3.3953,-3.3958,-3.3959,-3.3983,-3.3995,-3.3988,-3.3984,-3.3996,-3.4009,-3.4005,-3.4011,-3.4031,-3.4023,-3.3944,-3.3932,-3.3921,-3.3912,-3.4032,-3.4032,-3.4106,-3.4107,-3.4108]}]]